Wind_Speed
14 14 14 14 13 13 12 12 12 13 12 13 13 13 14 14 13 13 13 13 13 14 14 14 15 16 17 17 17 18 18 18 19 19 20 20 21 22
14 14 14 14 13 13 13 12 13 13 12 12 13 13 14 14 14 14 14 14 14 15 15 16 16 17 17 18 18 18 19 19 20 21 22 23 24 24
14 14 14 14 13 13 13 13 14 14 13 13 14 13 14 14 14 15 15 15 15 16 16 17 18 18 18 18 19 20 21 21 22 22 23 24 24 24
14 14 15 15 14 14 14 14 14 13 13 13 13 13 13 14 15 15 16 16 16 17 18 18 18 19 19 19 20 21 22 23 23 24 25 25 26 26
14 14 14 14 14 14 13 13 13 13 13 13 12 13 13 14 15 15 16 17 18 18 19 19 19 19 20 20 21 22 23 23 24 24 25 26 27 28
14 13 13 14 13 13 13 13 12 12 13 13 13 13 13 14 15 16 17 18 19 19 20 20 21 21 22 22 23 24 24 25 26 26 27 28 29 29
14 14 14 13 14 13 13 12 12 12 13 13 14 14 15 16 17 17 18 19 19 20 21 21 21 22 23 23 24 25 25 26 27 28 28 29 29 30
15 15 14 14 14 14 13 13 13 14 14 14 15 15 16 16 17 18 19 20 20 21 22 22 22 23 24 24 25 26 27 28 28 29 29 30 30 31
15 15 14 14 14 14 14 14 14 15 15 16 16 16 16 16 18 19 20 21 22 22 23 23 24 25 26 26 27 27 28 29 29 29 30 31 32 33
16 16 15 14 14 15 15 15 15 15 16 16 16 16 17 18 19 20 20 21 22 23 23 24 25 26 27 27 28 29 29 30 30 30 32 33 34 35
16 16 15 15 15 16 16 15 15 16 16 17 17 18 18 19 20 20 21 22 23 24 24 25 25 26 27 28 29 30 30 31 31 32 33 34 35 35
16 15 15 15 16 16 16 16 16 16 17 17 18 19 19 20 20 21 22 23 24 24 25 25 26 26 27 28 29 30 30 31 32 33 33 34 35 36
16 16 16 17 17 16 16 16 16 17 17 18 19 19 20 20 21 22 23 24 25 25 25 26 27 27 28 29 30 31 31 32 32 32 33 34 35 35
17 17 17 18 18 17 18 18 18 18 19 19 20 20 21 22 22 23 25 26 26 26 26 27 28 28 29 30 30 31 32 32 33 33 34 35 36 36
18 18 19 19 18 19 19 19 19 19 20 21 21 22 23 23 24 25 26 27 27 27 28 29 29 29 30 30 30 31 31 32 33 34 35 35 36 37
20 20 20 20 19 19 20 20 20 20 21 22 23 24 24 25 26 27 27 27 28 28 29 29 29 30 30 31 31 32 32 33 34 35 36 36 37 37
20 20 20 19 19 20 20 21 22 22 23 23 24 24 25 26 27 27 27 28 29 29 30 30 30 31 31 32 33 33 34 35 36 36 37 37 38 39
20 20 20 20 20 21 21 22 23 24 24 25 25 26 26 27 27 28 29 29 30 30 30 31 32 32 33 33 34 34 35 36 37 38 38 39 40 40
21 21 21 22 22 22 23 23 23 24 25 26 27 27 27 28 28 29 30 31 31 31 31 31 32 32 33 34 34 35 36 37 38 38 39 39 40 40
22 22 23 23 24 24 25 24 24 25 27 27 27 27 27 29 29 30 31 31 31 31 31 32 32 33 33 34 35 36 37 38 39 39 40 40 40 41
23 24 24 25 25 26 26 26 26 26 27 27 28 29 29 30 30 31 31 31 31 32 32 32 32 33 34 35 36 36 37 38 39 39 40 40 40 40
25 25 25 26 27 27 27 27 28 28 28 28 28 29 29 30 30 30 30 31 31 32 33 33 33 34 35 36 37 37 37 38 38 39 39 40 40 39
26 26 27 27 28 28 28 28 29 28 28 28 29 29 29 30 29 29 30 31 31 32 33 34 34 35 36 37 37 37 38 38 38 39 39 39 39 38
Wind_Direction
274 275 276 276 276 274 275 279 279 279 279 280 283 285 285 284 286 288 288 289 289 291 292 294 295 294 294 294 293 290 287 287 287 286 284 282 281 281
275 273 274 275 277 275 276 277 278 279 281 282 284 284 283 282 284 286 287 287 288 290 291 291 293 294 294 294 293 291 288 286 286 286 285 284 282 282
274 272 273 276 278 277 277 277 276 278 279 278 280 283 283 281 282 284 286 286 285 288 291 292 291 292 293 293 292 290 289 288 287 288 289 289 288 287
273 273 273 274 275 277 277 276 276 278 279 279 283 284 283 281 282 283 285 287 288 289 290 291 291 292 292 294 294 294 292 291 290 291 290 290 289 286
274 274 273 272 275 277 276 274 274 276 276 277 280 283 282 282 283 284 287 288 288 289 289 289 290 290 291 293 295 295 295 293 292 292 291 291 290 288
271 273 274 274 275 276 273 272 274 276 278 279 281 284 284 285 286 287 288 288 288 288 290 291 291 290 292 293 294 295 294 293 293 293 292 292 292 291
270 272 273 274 276 273 271 271 273 276 280 282 283 286 287 287 287 289 291 291 291 291 292 293 293 293 294 295 296 296 295 295 295 294 293 293 293 293
269 273 271 271 274 274 272 275 278 279 281 283 283 285 287 287 288 290 291 292 293 294 295 296 295 295 296 297 297 297 296 296 295 295 294 293 293 293
270 272 272 273 275 274 274 278 280 280 281 282 283 285 288 289 290 291 293 295 295 296 296 297 297 296 296 296 296 297 297 297 296 295 295 294 294 293
269 269 270 272 273 275 277 278 279 282 282 282 282 284 286 288 290 293 294 295 295 296 296 297 298 298 297 297 298 298 298 297 296 296 296 295 295 295
266 266 268 272 274 276 279 281 281 281 281 283 284 286 289 291 293 293 294 294 295 296 297 298 300 301 300 299 299 299 299 298 298 298 299 298 297 296
270 268 268 270 274 276 279 281 283 283 283 284 286 288 291 292 294 295 295 296 297 298 298 299 300 302 303 304 303 303 303 301 301 301 301 300 299 298
269 269 269 271 274 275 276 280 282 285 286 287 288 289 292 294 295 296 298 298 299 300 300 299 301 302 303 303 304 304 305 304 303 303 303 303 302 301
268 269 269 271 272 274 276 280 281 285 288 289 290 291 293 294 294 295 297 299 298 299 299 300 300 302 302 303 303 304 305 305 305 305 305 305 305 304
267 269 270 272 272 274 277 280 281 284 287 289 291 292 294 294 293 294 296 298 298 299 300 300 300 301 303 304 304 304 305 306 306 307 307 307 307 306
270 269 269 270 271 274 277 279 281 284 288 290 291 293 293 294 295 295 296 297 298 300 301 300 300 302 303 304 304 304 305 305 306 307 307 307 307 307
274 271 269 270 272 276 279 283 284 285 287 289 291 293 294 295 296 297 298 298 300 300 300 301 302 302 303 304 304 304 305 306 307 307 307 308 307 307
278 277 275 274 275 278 280 283 284 285 288 290 290 292 294 296 297 298 299 300 301 301 301 302 302 303 303 304 305 305 307 308 308 307 308 308 308 308
279 277 275 276 277 279 281 283 285 286 288 289 290 292 294 296 298 299 301 302 303 302 302 302 303 303 304 305 306 306 307 308 308 308 308 308 309 309
278 277 276 277 279 281 283 284 285 285 288 290 291 293 295 296 297 300 302 303 303 303 302 303 303 303 304 304 306 307 307 308 308 309 309 309 310 310
277 275 276 277 279 281 283 284 285 287 289 291 292 293 294 296 298 300 301 302 303 303 304 303 304 304 305 305 307 307 308 308 309 310 310 310 310 310
276 276 277 278 280 282 284 285 287 289 290 290 291 293 294 295 297 299 301 302 303 303 305 305 305 305 306 307 308 308 309 309 310 311 312 312 313 312
275 276 277 279 282 284 285 286 287 289 290 290 292 293 294 296 297 299 300 302 303 304 305 306 306 307 307 308 309 310 310 310 311 312 312 312 314 314
Height
5844 5843 5842 5841 5840 5839 5838 5838 5837 5836 5835 5833 5831 5830 5829 5829 5828 5828 5827 5826 5825 5824 5823 5822 5820 5819 5818 5816 5815 5814 5812 5811 5810 5808 5807 5806 5805 5803
5840 5839 5838 5837 5836 5835 5835 5834 5833 5832 5830 5829 5827 5826 5825 5825 5825 5824 5823 5823 5821 5820 5819 5818 5816 5815 5813 5812 5810 5809 5807 5806 5805 5803 5802 5800 5799 5797
5835 5835 5834 5833 5833 5832 5831 5830 5829 5828 5826 5825 5824 5822 5821 5821 5821 5820 5819 5818 5817 5816 5815 5813 5812 5810 5809 5807 5805 5804 5802 5801 5799 5797 5795 5794 5792 5790
5832 5831 5830 5829 5829 5828 5826 5826 5825 5824 5823 5822 5820 5819 5818 5818 5817 5816 5815 5814 5813 5811 5810 5808 5807 5805 5804 5802 5800 5798 5797 5795 5793 5791 5789 5787 5785 5783
5827 5827 5826 5825 5825 5823 5822 5821 5821 5820 5819 5818 5817 5816 5815 5814 5813 5812 5811 5809 5808 5807 5805 5803 5802 5800 5798 5797 5795 5793 5791 5789 5787 5785 5782 5780 5778 5775
5823 5823 5822 5821 5821 5819 5818 5817 5817 5816 5815 5814 5814 5812 5811 5810 5809 5808 5806 5805 5803 5801 5800 5798 5796 5795 5793 5791 5789 5787 5785 5782 5780 5777 5775 5772 5770 5767
5819 5818 5818 5817 5816 5816 5815 5814 5813 5812 5811 5810 5809 5808 5807 5806 5805 5803 5802 5800 5798 5796 5794 5793 5791 5789 5787 5785 5782 5780 5778 5775 5772 5769 5767 5764 5761 5759
5814 5814 5813 5813 5812 5812 5811 5810 5809 5809 5808 5807 5806 5804 5803 5801 5800 5798 5797 5795 5793 5791 5789 5787 5784 5782 5780 5778 5775 5773 5770 5767 5764 5761 5758 5756 5753 5750
5809 5809 5809 5808 5808 5807 5807 5806 5805 5804 5803 5802 5801 5800 5798 5797 5795 5794 5792 5790 5787 5785 5783 5781 5778 5776 5773 5771 5768 5765 5762 5760 5756 5753 5750 5747 5744 5741
5805 5804 5804 5804 5803 5803 5803 5802 5801 5800 5799 5798 5797 5795 5793 5792 5790 5788 5786 5784 5782 5779 5777 5774 5772 5769 5766 5763 5760 5758 5754 5751 5748 5745 5742 5738 5734 5731
5800 5800 5799 5799 5799 5798 5798 5797 5796 5795 5794 5793 5791 5790 5788 5786 5785 5783 5780 5778 5776 5773 5770 5768 5765 5761 5758 5755 5752 5749 5746 5743 5739 5736 5732 5728 5724 5720
5795 5795 5795 5794 5794 5793 5793 5792 5791 5790 5789 5787 5786 5784 5783 5781 5779 5777 5774 5772 5769 5767 5764 5761 5758 5755 5752 5748 5745 5741 5737 5734 5731 5727 5723 5718 5714 5710
5791 5791 5790 5790 5789 5789 5788 5788 5787 5785 5784 5782 5781 5779 5777 5775 5773 5770 5768 5766 5763 5760 5757 5754 5751 5748 5744 5741 5737 5733 5729 5725 5721 5717 5713 5709 5704 5699
5786 5786 5785 5785 5784 5784 5783 5782 5781 5780 5779 5777 5775 5773 5771 5769 5766 5764 5762 5759 5756 5753 5750 5747 5744 5740 5736 5733 5729 5725 5720 5716 5712 5708 5703 5699 5694 5689
5780 5780 5780 5779 5779 5778 5777 5776 5775 5774 5773 5771 5769 5767 5765 5762 5760 5757 5755 5752 5748 5745 5742 5739 5735 5732 5728 5724 5720 5716 5712 5708 5703 5699 5694 5689 5684 5679
5775 5774 5774 5773 5773 5772 5771 5770 5769 5768 5767 5765 5763 5760 5758 5756 5753 5750 5747 5744 5741 5738 5734 5730 5726 5723 5719 5715 5711 5707 5703 5699 5694 5689 5684 5679 5674 5669
5769 5769 5768 5768 5767 5766 5765 5764 5763 5761 5760 5758 5756 5753 5751 5748 5746 5743 5740 5736 5733 5729 5726 5722 5718 5714 5710 5706 5702 5698 5694 5689 5684 5679 5674 5669 5664 5658
5764 5763 5762 5762 5761 5760 5759 5758 5756 5755 5753 5751 5748 5746 5743 5741 5738 5735 5732 5728 5725 5721 5717 5713 5709 5705 5701 5697 5693 5689 5684 5679 5674 5669 5664 5659 5653 5648
5758 5757 5756 5755 5754 5753 5752 5751 5749 5747 5745 5743 5741 5738 5736 5733 5730 5727 5723 5720 5716 5712 5708 5704 5700 5696 5693 5689 5684 5679 5675 5670 5664 5659 5654 5648 5642 5636
5751 5750 5749 5748 5747 5746 5745 5743 5741 5739 5737 5735 5733 5730 5728 5725 5722 5719 5715 5711 5707 5703 5700 5696 5691 5687 5683 5679 5675 5670 5664 5659 5654 5649 5644 5638 5631 5625
5744 5743 5742 5741 5740 5738 5737 5735 5733 5731 5729 5727 5724 5722 5719 5716 5713 5710 5706 5702 5699 5695 5691 5687 5683 5678 5673 5669 5665 5660 5655 5649 5643 5638 5633 5627 5621 5615
5736 5735 5734 5733 5732 5730 5728 5727 5725 5723 5720 5718 5715 5712 5710 5707 5704 5701 5698 5694 5690 5686 5682 5678 5674 5669 5664 5660 5655 5650 5644 5639 5633 5627 5621 5616 5610 5604
5728 5727 5726 5724 5723 5721 5720 5718 5716 5714 5711 5709 5707 5704 5701 5698 5695 5692 5689 5685 5681 5677 5673 5669 5664 5660 5654 5650 5644 5639 5634 5628 5623 5617 5612 5605 5600 5594